User: anonymous   Login
Location: Churchill
(58.7670°N, 94.1670°W)
Time: 13:45:29
(UTC-05:00)
Language:

Cosmos 1315 Rocket - Orbit

View from above orbital plane
View from above orbital plane
View from above satellite
View from above satellite

Ground track
Ground track

The orbit data is extracted from the following two-line orbital elements,

1 12904U 81103B   17231.26039651 +.00000617 +00000-0 +41177-4 0  9993
2 12904 081.1766 203.5270 0027476 215.7282 144.2104 15.05308729502091
Epoch (UTC): 19 August 2017 06:14:58
Eccentricity: 0.0027476
inclination: 81.1766°
perigee height: 531 km
apogee height: 569 km
right ascension of ascending node: 203.5270°
argument of perigee: 215.7282°
revolutions per day: 15.05308729
mean anomaly at epoch: 144.2104°
orbit number at epoch: 50209

The dashed part of the orbit path shows where the satellite is in the earth's shadow,  

DLR